STARLINK-32786, 62528

Orbit data source: Space-Track

STARLINK-32786, 62528 is a payload satellite owned by SpaceX/Seattle (US) in LEO that was launched on Wed, 08 Jan 2025 UTC via an FALCON 9 launch vehicle from the Air Force Eastern Test Range (AFETR). Payload-class satellites include a variety of spacecraft equipped with specific instruments for various scientific and technological missions. These include communications satellites like Starlink; space stations such as the ISS; scientific satellites like the Hubble; Earth observation satellites from companies like Planet Labs, Umbra, and HawkEye 360; GPS; miniature CubeSats for education and research; and military/defense satellites.

Loading next visibility...
Identifier
62528, 2025-004T
Orbit
LEO
Last TLE update
14 hours ago
Origin
Manufacturer
SpaceX/Seattle
Mission
Operational Commercial Communications
Bus & Motor
STARLINK V2M, Unknown motor
Mass
730 kg wet, ~700 kg dry
Launch date (UTC)
2025-01-08 (6 months ago)
Launch vehicle
FALCON 9
Launch site
Air Force Eastern Test Range (AFETR)
Object type
Payload
Rocket body
Debris
Shape & HBR
Box + 2 Pan, 29 m
Radar Cross Section
33.884 m², Large (>1 m²)

Expand to show TLE details & history

TLE from 14 hours ago
0 STARLINK-32786
1 62528U 25004T   25183.71874710  .00017510  00000-0  64433-3 0  9995
2 62528  42.9988 191.1557 0000901 273.4820  86.5929 15.27579404 27282
Epoch: 2025-07-02T17:14Z
TLE epoch observation values (Epoch: 2025-07-02T17:14:59.749Z)
Latitude
0.00001°
Longitude
11.41094°
Altitude
482.789 km
Speed
7.626 km/s
True Right ascension
12h 44m 37s
True Declination
0° 00' 00"
Sunlit
Object was in daylight at epoch
Visualization orbit readout
Latitude
-33.25722°
Longitude
-127.40356°
Altitude
491.845 km
Speed
7.62 km/s
Apparent Right ascension
04h 54m 18s
Apparent Declination
-38° 36' 03"
Sunlit
Object is in daylight
Visualization observer readout
Local Sidereal Time
18:34:56
Azimuth
94.238° ESE
Elevation
-70.539°
Doppler factor
1
Orbital elements
Apogee altitude
485.615 km
Perigee altitude
484.378 km
Semi-major axis
6,863.133 km
Eccentricity
0.00009
Inclination
42.9988°
RAAN
191.1557°
Arg. of periapsis
273.482°
True anomaly
Unknown
Mean anomaly
86.5929°
Eccentric anomaly
Unknown
Mean motion
3.81733 °/min
Orbital period
94.31 mins
BSTAR
0.00064433
Loading maneuver chart data...
Loading SW <> Apogee altitude chart data...
Loading historical data...
Loading historical data...
Loading historical data...
Loading historical data...
Loading historical data...
Loading historical data...
Loading historical data...

STARLINK-32786 Visibility forecast

Observer location: undefined°, undefined°

Span
Click to sort rows by Start time (UTC) header in descending order
Start Az.
Max El. time (UTC)
Max El. Az.
Max El.
End time (UTC)
End Az.
6 mins2025-07-03 07:46:12.291Z291.41° WNW2025-07-03 07:49:12.291Z20.315° NNE41.778°2025-07-03 07:52:12.291Z92.06° ESE
5 mins2025-07-03 09:26:12.291Z264.95° W2025-07-03 09:28:12.291Z198.571° SSW33.598°2025-07-03 09:31:12.291Z138.482° SSE
5 mins2025-07-04 04:01:12.291Z227.832° WSW2025-07-04 04:03:12.291Z147.691° SSE41.001°2025-07-04 04:06:12.291Z77.44° E
5 mins2025-07-04 05:40:12.291Z283.954° WNW2025-07-04 05:42:12.291Z359.135° N39.437°2025-07-04 05:45:12.291Z70.095° E
|